Regional Weather Roundup
Issued by NWS State College, PA

Home | Current Version | Previous Version | Graphics & Text | Print | Product List | Glossary Off
Versions: 1 2 3 4 5 6 7 8 9 10 11 12 13 14 15 16 17 18 19 20 21 22 23 24 25 26 27 28 29 30 31 32 33 34 35 36 37 38 39 40 41 42 43 44 45 46 47 48 49 50

000
ASUS41 KCTP 231110
RWRCTP

REGIONAL WEATHER ROUNDUP
NATIONAL WEATHER SERVICE STATE COLLEGE PA
700 AM EDT THU MAR 23 2017

Note: "fair" indicates few or no clouds below 12,000 feet with no
significant weather and/or obstructions to visibility.

* = STATION THAT DOES NOT REPORT PRECIPITATION /E.G. RAIN...SNOW...ETC/
    THUNDER OR FOG.

PAZ002>004-007>009-013>016-020>023-029>032-231200-
WESTERN PENNSYLVANIA

CITY           SKY/WX    TMP DP  RH WIND       PRES   REMARKS
ERIE           CLEAR     18  14  84 CALM      30.55F
MEADVILLE      CLEAR     17  12  80 CALM      30.50S
FRANKLIN*      CLEAR     14   7  73 CALM      30.51S
NEW CASTLE     FAIR      11   8  88 CALM      30.56R
BEAVER COUNTY  NOT AVBL
BUTLER*        CLEAR     16  10  79 CALM      30.55R
PITTSBURGH INT CLEAR     20  11  68 CALM      30.53S
PITTSBURGH     CLEAR     20   5  52 E5        30.53R WCI  13
INDIANA*       PTCLDY    16  10  79 CALM      30.57R
LATROBE        CLEAR     16  12  86 CALM      30.56R
WASHINGTON CO* PTCLDY    14   9  79 CALM      30.54S
$$

PAZ004>006-010>012-017>019-024>028-033>037-041-042-045-046-049>053-231200-
CENTRAL PENNSYLVANIA

CITY           SKY/WX    TMP DP  RH WIND       PRES   REMARKS
BRADFORD       CLEAR      8   5  87 CALM      30.45S
DUBOIS         CLEAR     13   6  74 CALM      30.48R
CLEARFIELD       N/A    N/A N/A N/A MISG      30.52R
JOHNSTOWN      CLEAR     15   6  67 CALM      30.46R
ALTOONA        CLEAR     18   7  62 CALM      30.53R
STATE COLLEGE  CLEAR     19   7  58 CALM      30.55R
WILLIAMSPORT   CLEAR     19   9  65 NW5       30.59R WCI  12
SELINSGROVE    CLEAR     16  11  80 NW3       30.61R
FT INDIANTOWN  CLEAR     23   3  41 CALM      30.59R
CAPITAL CITY   PTCLDY    26   4  38 NW5       30.61R
HARRISBURG     CLEAR     25   6  44 NW6       30.61R
YORK           CLEAR     15  12  88 CALM      30.60R
$$

PAZ038>040-043-044-047-048-054-055-060>062-067>071-231200-
EASTERN PENNSYLVANIA

CITY           SKY/WX    TMP DP  RH WIND       PRES   REMARKS
SCRANTON       CLEAR     18   7  62 NW5       30.53R WCI  11
MOUNT POCONO   CLEAR     10   4  76 NW7       30.43R WCI  -1
ALLENTOWN      PTCLDY    21   6  52 NW5       30.58R WCI  15
QUAKERTOWN*    SUNNY     19   7  58 NW3       30.57R
READING        PTCLDY    22   7  52 W7        30.59R WCI  13
LANCASTER      CLEAR     22   8  55 CALM      30.60R
COATESVILLE    MOSUNNY   21   3  45 NW7       30.58R WCI  13
POTTSTOWN      PTCLDY    17   6  62 CALM      30.61R
BLUE BELL      CLEAR     21   9  58 CALM      30.58R
DOYLESTOWN     PTCLDY    17   7  64 W5        30.57R WCI  10
WILLOW GROVE   NOT AVBL
NORTH PHILA    CLEAR     22   7  52 NW6       30.61R WCI  14
PHILADELPHIA   CLEAR     24   5  44 NW10      30.61R WCI  14
$$



USA.gov is the U.S. government's official web portal to all federal, state and local government web resources and services.